This is the latest recevied weather packets stored in our database for station/object DL6JOE-10. If no packets are shown the sender has not sent any weather packets the latest 10 day(s).
| Time | Temp. | Humidity | Pressure | Rain* | Wind** | Luminosity | Snow |
|---|---|---|---|---|---|---|---|
| 1777726274 | 31.67° C | 21% | 965.8 hPa | - | - | - | - |
| 1777725375 | 31.11° C | 22% | 966 hPa | - | - | - | - |
| 1777724474 | 30.56° C | 23% | 966.2 hPa | - | - | - | - |
| 1777723574 | 30.56° C | 22% | 966.4 hPa | - | - | - | - |
| 1777722674 | 29.44° C | 24% | 966.6 hPa | - | - | - | - |
| 1777721774 | 29.44° C | 24% | 966.9 hPa | - | - | - | - |
| 1777720874 | 27.78° C | 26% | 967.1 hPa | - | - | - | - |
| 1777719974 | 27.78° C | 26% | 967.2 hPa | - | - | - | - |
| 1777719074 | 27.78° C | 25% | 967.5 hPa | - | - | - | - |
| 1777718174 | 27.22° C | 27% | 967.7 hPa | - | - | - | - |
| 1777717274 | 26.67° C | 27% | 967.7 hPa | - | - | - | - |
| 1777716374 | 25.56° C | 28% | 967.9 hPa | - | - | - | - |
| 1777715473 | 25° C | 29% | 968.1 hPa | - | - | - | - |
| 1777714573 | 24.44° C | 30% | 968.3 hPa | - | - | - | - |
| 1777713673 | 23.33° C | 30% | 968.5 hPa | - | - | - | - |
| 1777712773 | 22.78° C | 32% | 968.4 hPa | - | - | - | - |
| 1777711873 | 21.11° C | 33% | 968.7 hPa | - | - | - | - |
| 1777710973 | 20.56° C | 34% | 968.7 hPa | - | - | - | - |
| 1777710073 | 20° C | 35% | 968.8 hPa | - | - | - | - |
| 1777709173 | 18.89° C | 36% | 968.9 hPa | - | - | - | - |
| 1777708273 | 17.22° C | 38% | 969.1 hPa | - | - | - | - |
| 1777707373 | 17.22° C | 39% | 969.1 hPa | - | - | - | - |
| 1777706473 | 16.11° C | 39% | 969.2 hPa | - | - | - | - |
| 1777705572 | 15° C | 40% | 969.3 hPa | - | - | - | - |
| 1777704672 | 14.44° C | 40% | 969.3 hPa | - | - | - | - |
* Rain since midnight (hover to see other rain measurements)
** Current wind speed in m/s (hover to see current wind gust speed)